Weather in Schouwen-Duiveland

Netherlands     51°41′00″N   3°57′44″E
temp.,
°C
wind,
m/s
gust,
m/s
humid.,
%
clouds,
%
prec.,
mm/h
press.,
hPa
HPBL,
m
10 april, sat
sat1023:00+7ne5689100 0.0 1012217
02:00+6ene6790100 0.0 1013350
05:00+5ene5689100 0.1 1013465
08:00+5ene7893100 0.4 1014562
11:00+5ene8987100 0.1 1014622
14:00+5ene81091100 0.7 1014672
17:00+5ene81096100 3.1 1011725
20:00+4ne81197100 6.9 1010787
11 april, sun
sun1123:00+4ne91297100 1.3 1010671
02:00+3nne111397100 2.4 1011710
05:00+3nne101397100 0.6 1012772
08:00+4nne101178100 0.7 1013976
11:00+6nne9106495 0.0 10151335
14:00+6n910605 0.0 10161210
17:00+6n99595 0.0 10181234
20:00+6n89615 0.0 10201218
12 april, mon
mon1223:00+5n67615 0.0 1022935
02:00+5nnw55645 0.0 1024962
05:00+5nw666627 0.0 1025947
08:00+5nnw5563100 0.4 1026926
11:00+6wnw54615 0.1 10271000
14:00+5wnw56655 0.2 1028935
17:00+5nw55685 0.0 1028897
20:00+5n45665 0.0 1029833
13 april, tue
tue1323:00+5n45618 0.0 1031905
02:00+5n45595 0.0 1032872
05:00+5nnw56615 0.0 1032885
08:00+5nnw56625 0.0 1033977
11:00+6nnw44585 0.0 10341146
14:00+6nw54626 0.0 1034864
17:00+6nw556397 0.0 1034855
20:00+6nnw45615 0.0 1034678
14 april, wed
wed1423:00+5n34575 0.0 1034603
02:00+5nne23555 0.0 1034581
05:00+4ne12572 0.0 1034301
08:00+5ne22592 0.0 1034364
11:00+6nne33574 0.0 1035876
14:00+6nnw656119 0.0 1034783
17:00+6n875922 0.0 1033830
20:00+6nne88635 0.0 1033674